Regional Weather Roundup
Issued by NWS

Home | Current Version | Previous Version | Text Only | Print | Product List | Glossary On
Versions: 1 2 3 4 5 6 7 8 9 10 11 12 13 14 15 16 17 18 19 20 21 22 23 24 25 26 27 28 29 30 31 32 33 34 35 36 37 38 39 40 41 42 43 44 45 46 47 48 49 50
000
ASHW40 PHFO 202143
RWRHI

WEATHER ROUNDUP FOR HAWAII
NATIONAL WEATHER SERVICE HONOLULU HI
1100 AM HST MON OCT 20 2014

THIS IS AN AUTOMATED REPORT THAT HAS NOT BEEN QUALITY CONTROLLED.

NOTE..."FAIR" INDICATES FEW OR NO CLOUDS BELOW 12,000 FEET WITH NO
SIGNIFICANT WEATHER AND/OR OBSTRUCTIONS TO VISIBILITY.

* - THESE SITES REPORT LIMITED FIELDS

HIZ001>004-202200-
KAUAI-NIIHAU-

CITY           SKY/WX    TMP DP  RH WIND       PRES   REMARKS
LIHUE APT      PTSUNNY   82  72  71 E14       30.04F
PORT ALLEN*      N/A     81 N/A N/A E10         N/A
POIPU*           N/A     81 N/A N/A NE8G15      N/A
PRINCEVILLE*     N/A     34 N/A N/A MISG        N/A
KOKOLE POINT*  NOT AVBL
MOLOAA DAIRY*  NOT AVBL
WAIMEA HTS*      N/A     81  68  65 E10G16      N/A
PUU OPAE*        N/A     73  63  68 E5G13       N/A
PUU LUA*       NOT AVBL
MAKAHA RIDGE*  NOT AVBL
$$

HIZ005>011-202200-
OAHU-

CITY           SKY/WX    TMP DP  RH WIND       PRES   REMARKS
HONOLULU       CLOUDY    84  70  62 NE13G20   30.01S
KALAELOA       CLOUDY    78  72  81 E3        30.02F
KANEOHE MCB    CLOUDY    84  72  67 E8        30.02F
WHEELER FIELD  PTSUNNY   81  68  65 E10       30.09F
BELLOWS*         N/A    N/A N/A N/A E16         N/A
KAHUKU*          N/A    N/A N/A N/A E9G17       N/A
WHEELER*       NOT AVBL
WAIANAE HARBOR NOT AVBL
DILLINGHAM*      N/A     72  57  60 NE6G12      N/A
KAHUKU TRN*      N/A     72  63  73 E8G23       N/A
KAWAILOA*        N/A     79  70  73 E6G17       N/A
KII*             N/A     81  72  74 E18G26      N/A
MAKUA RANGE*     N/A     86  68  54 NW2         N/A
OAHU FOREST NW   N/A     70  70 100 VRB16G28    N/A
SCHOFIELD BRK*   N/A     72  61  68 MISG        N/A
SCHOFIELD S*   NOT AVBL
WAIANAE VLY*     N/A     82  64  54 E6G24       N/A
KUAOKALA*        N/A     81  66  61 CALM        N/A
HONOULIUULI*   NOT AVBL
MOKUOLOE IS*     N/A    N/A N/A N/A MISG        N/A
PALEHUA*         N/A     90  73  58 CALM        N/A  HX  98
WAIAWA PHB*    NOT AVBL
$$

HIZ012>013-202200-
MOLOKAI-

CITY           SKY/WX    TMP DP  RH WIND       PRES   REMARKS
MOLOKAI AIRPT  MOSUNNY   85  72  65 N9G20     30.02F HX  91
KALAUPAPA      NOT AVBL
MAKAPULAPAI*     N/A     84  73  70 E20G29      N/A  HX  91
MOLOKAI 1*       N/A     79  66  65 S5G24       N/A
PUU ALII*        N/A     65  61  87 SE2G10      N/A
$$

HIZ016-202200-
KAHOOLAWE-

CITY           SKY/WX    TMP DP  RH WIND       PRES   REMARKS
KAHOOLAWE*       N/A     77 N/A N/A E23G33      N/A
HAKIOAWA*      NOT AVBL
HONOKANAIA*      N/A     86  72  62 NE18G35   30.01F HX  92
KANELOA*         N/A     79  72  78 E23G40    29.24R
KEALIALALO*    NOT AVBL
LUA MAKIKA*    NOT AVBL
$$

HIZ014>015-202200-
LANAI-

CITY           SKY/WX    TMP DP  RH WIND       PRES   REMARKS
LANAI CITY     PTSUNNY   82  68  61 W9        30.07F
LANAI 1*         N/A     81  79  94 NE15G24     N/A
$$

HIZ017>028-202200-
MAUI-

CITY           SKY/WX    TMP DP  RH WIND       PRES   REMARKS
KAHULUI        MOSUNNY   88  66  48 E7        30.00S HX  90
KAPALUA-W MAUI MOSUNNY   84  66  54 NE16      30.00
HANA AIRPORT   PTSUNNY   82  72  69 SE6       30.04F
HANA*            N/A     82 N/A N/A E8G15       N/A
HALEAKALA SUMM   N/A     55  34  44 E16G39      N/A
MAALAEA BAY*   NOT AVBL
HALEAKALA*     NOT AVBL
KAUPO GAP*       N/A     79  55  44 SE7G20      N/A
KULA 1*          N/A     69  49  48 NW3G10      N/A
$$

HIZ023>026-202200-
BIG ISLAND OF HAWAII COAST AND LOWER SLOPES-

CITY           SKY/WX    TMP DP  RH WIND       PRES   REMARKS
KAILUA KONA    PTSUNNY   85  71  63 SW6       29.98S HX  90
HILO           SUNNY     85  70  60 SE9       30.03F
HONOKAA*       NOT AVBL
KAWAIHAE MWT*    N/A     84 N/A N/A SW7         N/A
KAWAIHAE*        N/A     82 N/A N/A SW3         N/A
SOUTH POINT*     N/A     77 N/A N/A E21G30      N/A
UPOLU AIRPORT*   N/A    N/A N/A N/A E18G29      N/A
KAMUELA*       PTCLDY    77  66  69 W9        30.11F
HAKALAU*         N/A     73  32  22 S6G12       N/A
KALOKO-HONOKO*   N/A     84  73  70 NW3G9     29.97F HX  91
PALI 2*          N/A     79  -2   4 E12G24      N/A
KEALAKOMO*       N/A     84  72  65 E15         N/A
KAUPULEHU*       N/A     82  68  61 W10         N/A
KAPAPALA*      NOT AVBL
LOWER KAHUKU*  NOT AVBL
PUHE CS*       NOT AVBL
PUHO CS*         N/A     83  69  62 W2          N/A
PTA KEAMUKU*     N/A     72  64  78 W9          N/A
WAIKOLOA*        N/A     82  66  57 W9G15       N/A
$$

HIZ027>028-202200-
BIG ISLAND OF HAWAII INTERIOR AND SUMMMITS-

CITY           SKY/WX    TMP DP  RH WIND       PRES   REMARKS
BRADSHAW FIELD MOSUNNY   73  31  21 S20G31    30.34F
MK VISITOR CEN NOT AVBL
MAUNA KEA*       N/A     43  25  49 SE12        N/A
MAUNA LOA*       N/A    N/A N/A N/A MISG        N/A
MAUNA LOA 1*     N/A    N/A N/A N/A MISG        N/A
PTA KIPUKA*      N/A     72  61  68 NW6G14      N/A
PTA RANGE 17*    N/A     73  48  40 N7G24       N/A
PTA WEST*        N/A     70  64  83 NW10        N/A
NENE CABIN*    NOT AVBL
AHUMOA*          N/A     66  61  83 N9          N/A
PTA PORTABLE*  NOT AVBL
PUU MALI*      NOT AVBL
$$

HIC003-202200-
NORTHWEST ISLANDS-

CITY           SKY/WX    TMP DP  RH WIND       PRES   REMARKS
MIDWAY ISLAND  SUNNY     79  75  89 S18       30.00F
MIDWAY NOS*    NOT AVBL
FRENCH FRIGATE NOT AVBL
$$

PHZ110>124-180-202200-
BUOY REPORTS

STATION/POSITION TIME  TEMP    WIND        PRES    WAVE   SWELL
                       AIR SEA DIR/SP/G            HT/PER HT/DIR
                 (UTC) (F)     (DEG/KT/KT) (MB)    (FT/S) (FT/D)
BUOY 51001       NOT AVBL
BUOY 51101       NOT AVBL
BUOY 51100       2000   79 80   70/ 21/ 25 1018.2
BUOY 51003       2100   82 82  130/ 21/ 25 1014.5R   9/ 7   3
BUOY 51004       2006   80 81   90/ 16/ 19 1015.4F  10/14   8/320
BARBERS PT BUOY  NOT AVBL
WAIMEA BAY BUOY  2100      81                N/A     8/13
KAILUA BAY BUOY  2100      82                N/A     8/12   3/350
LANAI BUOY       2100      82                N/A     3/13   2/300
BARBERS PT 2     2100      81                N/A     6/13   3/310
PAUWELA MAUI     2100      81                N/A     8/14   5/340
HILO             2100      81                N/A     8/13   7/340
KANEOHE BAY BUOY NOT AVBL
HANALEI KAUAI    NOT AVBL
KAHULUI HARBOR   2100   82 80   50/ 19/ 21 1015.4F
HONOLULU HARBOR  2100   84     110/  6/ 11 1016.4F
KILO NALU        NOT AVBL
HILO HARBOR      2100   89     100/  8/ 11 1016.2F
MOKUOLOE         2100   84 82  100/ 11/ 15 1017.0F
NAWILIWILI       2100      82                N/A
WHOTS BUOY       NOT AVBL
BUOY 51028       NOT AVBL
$$

......................KEY........................................
  SKY/WX - SKY CONDITIONS/PRESENT WEATHER
  TMP    - TEMPERATURE IN FAHRENHEIT
  DWPT   - DEWPOINT IN FAHRENHEIT
  RH     - RELATIVE HUMIDITY IN PERCENT
  WIND   - DIRECTION AND SPEED /MPH FOR ISLANDS...KTS FOR BUOYS/
  PRES   - MEAN SEA LEVEL PRESSURE IN INCHES OF HG
  VSB    - VISIBILITY IN MILES
  HX     - HEAT INDEX
  WCI    - WIND CHILL INDEX
  VRB    - VARIABLE WIND DIRECTION
  N/A    - NOT AVAILABLE



USA.gov is the U.S. government's official web portal to all federal, state and local government web resources and services.